Wind_Speed
5 4 8 10 12 13 8 5 2 3 1 8 7 12 14 21 22 17 14 15 17 19 16 14 19 30 35 34 38 44 45 43 40 38 37 36 37 36 33 32 28 28 26 25
3 9 3 5 5 9 15 19 18 10 9 6 11 19 19 17 22 23 20 16 16 17 19 17 16 28 36 37 38 41 45 46 41 39 36 37 37 36 34 33 31 30 29 27
8 9 13 12 11 10 12 16 13 13 6 9 12 22 18 13 20 19 13 16 17 19 17 18 18 22 32 38 40 41 43 48 46 40 36 35 35 35 37 37 35 34 32 30
7 6 8 13 15 13 16 8 9 10 7 8 3 9 12 8 9 4 3 7 11 15 18 18 20 22 29 35 39 40 44 44 47 43 43 34 38 40 41 39 38 38 33 30
5 11 16 18 17 12 13 6 11 14 14 11 12 7 7 7 8 2 2 5 6 12 14 19 23 24 26 29 35 41 44 46 45 45 32 21 41 41 40 40 41 40 37 32
13 15 13 19 21 18 15 12 10 5 10 10 16 13 6 8 4 2 5 5 7 8 11 14 19 23 27 29 33 38 47 43 47 45 39 29 28 42 45 44 45 44 40 38
18 5 6 6 9 15 12 11 6 9 8 9 16 12 14 3 4 9 9 11 10 11 10 12 15 20 25 29 35 38 47 47 50 42 31 42 39 32 50 51 50 48 45 43
5 11 4 5 5 4 8 17 6 16 6 11 14 10 5 6 11 6 8 11 11 14 13 14 16 18 22 30 34 42 45 51 47 51 44 49 48 43 42 49 50 49 46 44
7 9 11 15 17 7 4 11 26 10 8 8 8 8 6 3 7 12 16 18 18 19 20 21 21 21 23 27 35 42 48 52 50 53 56 53 46 42 43 42 51 50 46 45
4 12 5 4 3 11 14 5 14 6 6 7 9 10 3 9 13 15 18 24 26 22 25 25 25 25 27 28 34 38 44 53 56 54 59 51 52 47 46 40 51 53 48 46
10 5 11 13 2 5 6 6 12 6 6 3 6 5 8 11 13 14 19 24 27 28 27 28 29 32 32 30 34 37 42 49 54 53 58 50 55 53 53 48 52 55 51 48
3 4 6 4 17 10 6 6 11 6 7 2 2 4 8 13 14 18 20 27 28 26 30 31 32 32 36 34 35 38 39 45 53 59 57 51 52 53 49 44 47 54 51 47
10 7 5 5 9 16 10 12 3 9 7 4 1 4 10 23 24 25 21 28 32 33 36 37 31 18 25 29 33 36 39 42 46 50 52 55 48 38 44 48 48 52 50 48
11 16 18 13 8 9 14 29 26 10 6 6 8 14 22 26 23 28 26 30 33 32 34 34 29 11 11 18 27 33 36 41 41 51 51 49 43 33 34 45 49 52 48 47
2 2 14 19 14 21 27 29 29 27 15 10 12 10 22 21 20 21 24 30 31 33 32 31 28 16 2 16 22 30 32 35 38 40 51 50 43 34 35 38 49 53 53 48
3 3 2 6 6 14 28 25 27 25 23 16 12 9 20 26 17 25 28 31 32 35 33 32 27 19 11 7 19 25 28 30 35 44 49 52 47 40 34 40 56 53 51 49
4 4 4 3 12 8 22 24 16 21 21 15 16 18 24 20 16 22 31 34 36 36 33 32 29 22 15 6 9 19 26 29 34 40 43 47 46 42 38 42 52 53 46 47
5 2 3 4 6 10 6 15 9 10 20 21 18 19 23 24 15 22 38 39 39 37 32 30 30 20 16 8 7 14 22 27 28 37 40 44 45 35 37 42 45 50 54 50
17 2 6 4 11 3 19 23 10 4 17 21 19 24 28 34 17 21 47 45 38 34 30 29 26 21 17 11 1 8 16 20 32 33 40 46 44 35 28 36 40 47 53 52
17 18 6 7 7 11 13 24 33 9 14 32 31 27 29 30 17 15 45 41 38 37 33 32 33 27 21 18 13 3 12 16 22 28 31 37 44 40 36 29 37 44 50 53
8 6 15 11 7 5 12 24 20 18 8 30 29 28 26 17 20 25 35 41 41 41 40 39 42 43 35 27 23 17 6 5 13 14 27 29 35 39 47 40 38 45 47 49
8 4 5 5 6 7 19 11 10 7 14 20 23 25 25 24 25 31 35 39 46 49 49 50 50 48 42 38 35 32 20 8 9 19 27 29 29 35 38 44 45 39 46 42
7 6 4 4 4 2 9 7 13 14 13 19 22 25 25 27 28 33 40 42 43 43 50 52 49 47 46 44 40 36 31 31 18 9 17 24 28 29 38 44 41 43 43 37
6 9 3 2 4 5 9 12 17 21 22 21 21 23 24 25 31 35 38 42 43 45 47 47 49 49 49 48 46 40 35 31 29 20 4 10 23 30 35 35 33 35 44 50
2 4 4 5 4 3 10 12 14 19 23 28 28 28 26 29 31 33 35 40 42 43 47 48 48 47 47 48 46 46 41 36 36 35 28 16 12 7 18 21 23 29 35 45
5 2 3 4 3 2 9 12 12 16 21 24 29 32 30 31 28 29 36 38 38 43 44 46 47 47 47 46 47 47 45 42 35 34 38 35 25 19 10 1 8 15 26 38
Wind_Direction
357 274 240 246 233 239 238 239 205 236 170 332 285 282 275 293 296 285 269 269 268 263 256 255 232 231 229 225 219 218 209 211 213 216 210 207 204 205 204 207 208 202 200 200
294 260 180 326 323 262 246 250 251 256 268 263 285 281 285 275 271 264 261 255 259 263 254 253 237 218 224 225 222 218 213 212 209 216 214 211 207 208 209 208 207 207 205 203
286 290 292 284 277 271 249 242 245 251 252 282 298 285 266 268 247 258 251 248 251 250 249 248 230 217 218 220 223 215 219 215 212 205 212 213 210 211 211 212 210 214 214 209
291 319 314 295 253 234 252 225 221 225 221 253 183 281 266 279 276 277 237 230 242 242 237 235 241 223 213 219 223 226 216 220 210 206 200 213 216 213 216 215 212 215 223 216
279 296 293 291 271 265 248 194 215 222 231 239 223 252 258 270 281 279 257 226 237 242 246 235 237 241 235 226 223 219 214 220 209 206 198 198 226 224 222 220 217 218 220 224
268 269 265 255 264 263 280 237 235 251 219 222 219 218 262 254 258 59 10 349 328 307 279 258 245 247 243 232 222 220 212 221 210 208 210 211 211 222 224 222 221 218 220 221
317 276 263 272 260 258 250 257 201 211 210 226 208 212 244 219 226 339 330 333 336 328 304 282 264 249 238 230 221 217 213 217 214 206 212 215 211 234 233 221 218 215 220 222
321 316 217 201 186 242 225 217 230 197 186 181 189 212 224 139 68 47 2 346 335 328 320 299 278 262 244 238 224 213 212 216 216 206 215 208 213 222 226 228 221 217 218 222
305 277 287 271 263 200 193 213 229 311 198 172 172 198 114 69 17 9 353 345 341 331 321 301 284 269 257 236 236 221 212 213 223 214 214 209 215 221 231 230 223 220 220 226
278 290 326 252 288 219 217 295 190 217 195 175 180 180 83 6 350 358 348 341 333 328 320 310 286 271 257 245 242 235 227 215 223 217 217 214 215 221 228 231 228 220 223 229
280 243 291 304 334 55 161 216 191 196 297 193 161 106 28 5 349 347 341 337 329 326 322 315 294 266 260 248 238 236 229 218 215 214 219 215 219 221 228 241 233 222 223 229
254 280 302 347 37 29 69 171 181 205 244 295 5 107 35 0 354 349 337 340 334 331 327 326 311 273 250 241 236 231 224 219 218 222 217 217 226 226 235 233 233 226 225 230
340 327 327 10 16 17 40 26 221 265 263 247 209 93 2 355 354 350 338 338 341 339 335 331 328 289 243 231 223 222 218 214 217 219 221 221 221 220 232 231 235 227 226 221
353 78 68 64 50 50 54 43 44 52 41 343 46 330 359 352 344 344 351 346 347 338 332 329 337 348 249 215 213 219 220 217 212 218 219 221 213 222 240 236 232 230 224 219
53 73 89 104 73 62 66 50 39 45 35 37 348 350 358 332 331 355 349 347 348 339 333 336 345 4 1 218 216 216 222 220 217 214 219 221 220 232 243 241 233 218 221 223
3 354 177 6 320 43 50 40 50 35 25 19 21 359 336 329 326 5 354 354 348 337 336 342 349 358 16 191 215 224 220 222 218 215 222 228 223 232 246 238 229 217 219 227
318 342 354 6 347 359 28 14 28 30 13 0 15 340 332 346 347 6 355 355 350 339 339 344 352 358 9 27 197 212 226 221 222 222 226 225 222 232 239 236 224 214 223 226
333 18 17 335 334 51 9 354 359 36 7 0 360 352 357 351 338 5 4 357 346 344 347 359 358 7 20 25 197 211 210 227 227 225 231 225 224 233 238 238 233 221 226 229
23 30 57 56 60 100 356 0 343 20 11 353 353 351 359 355 1 11 3 3 347 354 9 8 9 19 30 36 89 226 213 225 227 235 234 228 226 236 230 232 224 222 227 229
30 43 59 40 68 35 347 340 335 164 18 351 349 350 358 2 24 1 356 352 357 14 25 20 28 40 48 44 53 113 208 218 221 224 236 242 241 239 227 234 237 232 229 222
356 5 42 43 73 50 331 350 29 47 321 330 345 353 1 19 9 345 358 6 11 18 26 34 39 44 45 49 49 44 37 224 217 229 232 230 245 246 233 233 232 232 230 215
19 17 20 32 61 41 348 350 32 327 335 342 353 359 2 6 9 8 8 14 19 22 31 39 43 43 43 44 50 49 42 4 279 253 236 239 255 248 246 242 223 223 221 221
50 34 48 46 86 334 356 1 29 20 5 358 5 7 10 11 11 13 17 19 21 23 35 42 42 41 42 42 41 41 42 40 23 322 248 234 246 235 240 231 222 215 219 227
56 49 64 119 20 349 14 27 30 28 25 19 15 17 20 16 18 21 21 25 28 30 34 40 43 39 38 40 41 41 43 46 46 37 46 213 232 237 237 232 231 237 220 212
352 353 57 77 35 26 23 18 14 23 26 27 30 26 23 25 24 22 23 29 32 34 37 40 42 42 39 37 38 40 43 45 46 52 57 80 110 185 210 227 232 224 218 222
6 37 71 73 312 277 348 0 3 15 25 27 26 27 29 31 29 26 29 31 29 34 36 38 40 42 41 39 38 41 41 42 50 53 49 56 72 82 89 288 238 235 238 234
Height
1500 1498 1492 1494 1494 1492 1494 1497 1496 1496 1496 1494 1492 1492 1491 1490 1488 1489 1492 1493 1491 1491 1493 1494 1496 1499 1504 1509 1513 1517 1525 1531 1535 1544 1549 1554 1557 1563 1568 1572 1577 1581 1584 1587
1500 1494 1497 1498 1496 1495 1492 1489 1489 1494 1496 1496 1492 1485 1484 1486 1482 1483 1485 1488 1489 1488 1488 1490 1492 1494 1497 1502 1507 1512 1519 1525 1528 1539 1546 1551 1555 1560 1565 1569 1573 1578 1582 1585
1504 1496 1496 1495 1493 1492 1488 1488 1490 1493 1493 1492 1492 1473 1473 1472 1473 1474 1479 1483 1484 1484 1485 1486 1487 1490 1494 1497 1502 1508 1512 1518 1526 1527 1542 1549 1554 1557 1561 1564 1569 1573 1576 1581
1502 1497 1496 1492 1486 1486 1484 1487 1488 1490 1493 1492 1491 1471 1465 1468 1469 1473 1475 1477 1477 1477 1479 1481 1482 1484 1488 1493 1498 1502 1510 1513 1520 1527 1531 1543 1548 1549 1553 1560 1564 1568 1572 1577
1498 1497 1496 1493 1487 1484 1478 1481 1480 1483 1485 1488 1488 1488 1457 1467 1467 1469 1470 1471 1472 1474 1475 1476 1477 1479 1481 1486 1490 1496 1502 1507 1512 1521 1530 1533 1542 1546 1549 1555 1560 1564 1568 1572
1499 1494 1493 1485 1484 1487 1486 1480 1479 1480 1480 1485 1477 1482 1458 1462 1462 1463 1467 1469 1470 1470 1470 1471 1473 1475 1477 1481 1486 1491 1494 1500 1508 1514 1523 1528 1530 1537 1540 1546 1552 1558 1562 1566
1491 1488 1485 1484 1482 1483 1488 1486 1488 1490 1481 1473 1467 1477 1458 1461 1461 1466 1467 1466 1467 1468 1467 1467 1468 1470 1472 1475 1479 1486 1489 1494 1501 1509 1512 1520 1525 1529 1530 1535 1541 1547 1554 1559
1500 1486 1480 1481 1483 1482 1480 1484 1466 1462 1456 1460 1461 1466 1455 1460 1465 1469 1469 1468 1465 1464 1464 1462 1463 1463 1465 1468 1472 1478 1483 1486 1493 1499 1502 1508 1516 1519 1521 1528 1535 1540 1545 1552
1502 1484 1475 1477 1476 1483 1476 1478 1473 1474 1442 1449 1455 1455 1459 1464 1466 1468 1468 1467 1465 1462 1460 1458 1457 1457 1458 1461 1463 1468 1475 1480 1484 1490 1494 1499 1506 1512 1515 1521 1527 1535 1539 1545
1503 1487 1468 1474 1473 1470 1474 1469 1473 1489 1458 1460 1449 1447 1455 1471 1469 1468 1467 1466 1463 1462 1457 1453 1451 1450 1451 1453 1456 1461 1466 1470 1474 1481 1486 1494 1500 1505 1508 1514 1519 1526 1531 1539
1500 1496 1472 1470 1463 1459 1469 1467 1460 1467 1466 1439 1439 1462 1481 1484 1480 1474 1472 1469 1463 1457 1453 1447 1442 1440 1442 1445 1447 1451 1456 1462 1470 1475 1480 1488 1492 1497 1501 1506 1509 1516 1523 1531
1498 1489 1478 1475 1468 1463 1458 1455 1457 1465 1461 1442 1446 1472 1487 1488 1481 1476 1471 1467 1461 1454 1448 1441 1435 1429 1430 1434 1438 1442 1448 1454 1460 1467 1472 1479 1484 1490 1494 1497 1501 1507 1514 1522
1499 1486 1474 1471 1470 1475 1479 1476 1469 1460 1452 1450 1456 1469 1482 1482 1476 1475 1472 1469 1459 1451 1442 1435 1428 1421 1420 1425 1430 1434 1440 1446 1451 1457 1464 1470 1476 1483 1486 1488 1493 1499 1506 1514
1505 1495 1498 1503 1505 1501 1495 1489 1483 1473 1478 1486 1495 1492 1483 1482 1480 1475 1473 1467 1457 1452 1444 1437 1427 1418 1419 1422 1427 1430 1435 1440 1446 1451 1457 1462 1468 1473 1476 1478 1481 1489 1498 1506
1510 1507 1504 1511 1511 1503 1500 1504 1505 1501 1509 1507 1505 1496 1497 1494 1489 1485 1478 1469 1459 1453 1446 1437 1426 1418 1415 1421 1424 1429 1431 1434 1441 1445 1450 1455 1461 1465 1468 1470 1472 1480 1490 1498
1511 1505 1507 1501 1498 1492 1497 1511 1516 1519 1517 1512 1509 1504 1507 1496 1488 1484 1479 1468 1460 1452 1443 1434 1427 1419 1415 1416 1420 1424 1426 1430 1434 1438 1443 1448 1454 1458 1461 1462 1464 1472 1480 1489
1511 1508 1503 1497 1498 1485 1491 1525 1525 1530 1526 1523 1513 1517 1503 1493 1488 1487 1477 1470 1460 1453 1443 1435 1427 1419 1415 1413 1415 1418 1422 1426 1430 1435 1438 1442 1446 1449 1452 1455 1456 1463 1471 1481
1514 1508 1511 1507 1498 1518 1546 1540 1535 1532 1533 1525 1521 1515 1507 1498 1491 1487 1480 1471 1462 1453 1445 1435 1427 1420 1416 1412 1413 1415 1417 1421 1425 1430 1433 1436 1440 1444 1446 1446 1447 1456 1464 1472
1515 1512 1518 1518 1524 1537 1534 1537 1539 1536 1538 1529 1522 1516 1509 1498 1493 1485 1476 1470 1466 1456 1445 1436 1430 1422 1415 1411 1410 1412 1415 1418 1422 1425 1428 1430 1434 1437 1438 1438 1443 1451 1459 1466
1524 1520 1522 1527 1537 1552 1562 1546 1533 1531 1535 1531 1526 1519 1512 1502 1486 1493 1479 1474 1466 1455 1445 1437 1429 1421 1415 1412 1410 1411 1413 1414 1417 1419 1422 1424 1427 1429 1430 1434 1438 1445 1451 1459
1542 1538 1538 1540 1550 1569 1562 1557 1538 1535 1558 1541 1534 1528 1521 1514 1513 1504 1490 1476 1465 1455 1446 1439 1432 1425 1420 1416 1414 1412 1412 1411 1412 1414 1415 1418 1418 1420 1421 1426 1431 1436 1442 1449
1558 1553 1557 1555 1562 1573 1567 1561 1553 1562 1555 1546 1537 1530 1524 1520 1512 1503 1490 1478 1467 1455 1446 1439 1435 1431 1425 1420 1417 1414 1413 1411 1409 1408 1409 1410 1410 1409 1415 1418 1422 1428 1435 1439
1567 1570 1567 1569 1574 1575 1571 1567 1564 1560 1555 1548 1540 1532 1526 1519 1513 1503 1492 1482 1475 1467 1456 1448 1443 1437 1432 1427 1422 1417 1414 1411 1406 1403 1399 1400 1403 1405 1408 1408 1411 1419 1426 1430
1572 1572 1572 1574 1576 1574 1571 1568 1564 1560 1556 1550 1544 1537 1530 1524 1514 1508 1500 1492 1485 1476 1468 1461 1449 1444 1438 1432 1427 1424 1420 1416 1411 1402 1397 1394 1397 1400 1401 1405 1408 1412 1418 1425
1578 1576 1576 1577 1576 1574 1572 1569 1566 1563 1558 1552 1546 1540 1534 1525 1518 1513 1509 1501 1494 1486 1476 1469 1463 1457 1449 1442 1436 1429 1421 1416 1413 1409 1404 1399 1400 1402 1402 1404 1406 1412 1418 1424
1581 1581 1579 1579 1578 1577 1573 1569 1567 1564 1560 1555 1549 1543 1538 1532 1527 1522 1514 1507 1500 1492 1487 1479 1472 1466 1460 1454 1445 1437 1432 1427 1421 1416 1410 1409 1408 1408 1409 1411 1412 1416 1419 1422